| time (UTC) | temp C | wind direction | speed KPH | gust KPH | rain 1hr cm | rain 24hr cm | rain mn cm | humidity % | barometer mb |
| 20260505101403 | 13 | 127 | 14.5 | 22.5 | 0.00 | 0.00 | 0.00 | 90 | 1000.2 |
| 20260505100900 | 13 | 144 | 12.9 | 20.9 | 0.00 | 0.00 | 0.00 | 91 | 1000.2 |
| 20260505100355 | 13 | 155 | 14.5 | 20.9 | 0.00 | 0.00 | 0.00 | 90 | 1000.2 |
| 20260505095355 | 13 | 138 | 12.9 | 19.3 | 0.00 | 0.00 | 0.00 | 90 | 1000.2 |
| 20260505094401 | 13 | 148 | 12.9 | 17.7 | 0.00 | 0.00 | 0.00 | 89 | 1000.2 |
| 20260505093405 | 13 | 143 | 12.9 | 16.1 | 0.00 | 0.00 | 0.00 | 90 | 1000.2 |
| 20260505092353 | 13 | 133 | 11.3 | 16.1 | 0.00 | 0.00 | 0.00 | 89 | 1000.2 |
| 20260505091402 | 13 | 153 | 12.9 | 20.9 | 0.00 | 0.00 | 0.00 | 89 | 1000.2 |
| 20260505090856 | 13 | 159 | 11.3 | 17.7 | 0.00 | 0.00 | 0.00 | 89 | 1000.2 |
| 20260505085900 | 13 | 159 | 11.3 | 16.1 | 0.00 | 0.00 | 0.00 | 89 | 1000.2 |
| 20260505084905 | 13 | 166 | 11.3 | 22.5 | 0.00 | 0.00 | 0.00 | 89 | 1000.2 |
| 20260505083904 | 13 | 151 | 11.3 | 17.7 | 0.00 | 0.00 | 0.00 | 89 | 1000.2 |
| 20260505082916 | 13 | 144 | 11.3 | 17.7 | 0.00 | 0.00 | 0.00 | 88 | 1000.2 |
| 20260505081852 | 14 | 188 | 11.3 | 19.3 | 0.00 | 0.00 | 0.00 | 88 | 1000.2 |
| 20260505080859 | 14 | 148 | 14.5 | 19.3 | 0.00 | 0.00 | 0.00 | 88 | 1000.2 |
| 20260505075905 | 14 | 147 | 12.9 | 19.3 | 0.00 | 0.00 | 0.00 | 87 | 1000.2 |
| 20260505075406 | 14 | 136 | 9.7 | 17.7 | 0.00 | 0.00 | 0.00 | 87 | 1000.2 |
| 20260505074845 | 14 | 146 | 14.5 | 17.7 | 0.00 | 0.00 | 0.00 | 87 | 1000.2 |
| 20260505073905 | 15 | 148 | 9.7 | 20.9 | 0.00 | 0.00 | 0.00 | 87 | 1000.2 |
| 20260505073404 | 15 | 172 | 14.5 | 20.9 | 0.00 | 0.00 | 0.00 | 87 | 1000.2 |
| 20260505072357 | 15 | 159 | 14.5 | 17.7 | 0.00 | 0.00 | 0.00 | 86 | 1000.2 |
| 20260505071356 | 15 | 150 | 14.5 | 22.5 | 0.00 | 0.00 | 0.00 | 86 | 1000.2 |
| 20260505070851 | 15 | 150 | 16.1 | 22.5 | 0.00 | 0.00 | 0.00 | 87 | 1000.2 |
| 20260505065918 | 15 | 163 | 16.1 | 17.7 | 0.00 | 0.00 | 0.00 | 86 | 1000.2 |
| 20260505065400 | 15 | 167 | 16.1 | 19.3 | 0.00 | 0.00 | 0.00 | 86 | 1000.2 |
| 20260505064406 | 15 | 154 | 17.7 | 24.1 | 0.00 | 0.00 | 0.00 | 84 | 1000.2 |
| 20260505063402 | 15 | 158 | 12.9 | 17.7 | 0.00 | 0.00 | 0.00 | 83 | 1000.2 |
| 20260505062852 | 16 | 169 | 9.7 | 17.7 | 0.00 | 0.00 | 0.00 | 83 | 1000.2 |
| 20260505061859 | 16 | 181 | 9.7 | 14.5 | 0.00 | 0.00 | 0.00 | 81 | 1000.2 |
| 20260505061354 | 16 | 216 | 3.2 | 11.3 | 0.00 | 0.00 | 0.00 | 79 | 1000.2 |
| 20260505060851 | 16 | 192 | 4.8 | 17.7 | 0.00 | 0.00 | 0.00 | 80 | 1000.2 |
| 20260505055907 | 17 | 172 | 8.0 | 14.5 | 0.00 | 0.00 | 0.00 | 79 | 1000.2 |
| 20260505054853 | 17 | 167 | 6.4 | 11.3 | 0.00 | 0.00 | 0.00 | 80 | 1000.2 |
| 20260505054350 | 16 | 166 | 3.2 | 9.7 | 0.00 | 0.00 | 0.00 | 82 | 1000.2 |
| 20260505053358 | 17 | 201 | 3.2 | 4.8 | 0.00 | 0.00 | 0.00 | 83 | 1000.2 |
| 20260505052404 | 17 | 224 | 3.2 | 9.7 | 0.00 | 0.00 | 0.00 | 81 | 1000.2 |
| 20260505051402 | 17 | 222 | 6.4 | 11.3 | 0.00 | 0.00 | 0.00 | 81 | 1000.2 |
| 20260505050409 | 17 | 192 | 9.7 | 14.5 | 0.00 | 0.00 | 0.00 | 80 | 1000.2 |
| 20260505041404 | 18 | 161 | 4.8 | 12.9 | 0.00 | 0.00 | 0.00 | 79 | 1000.2 |
| 20260505040903 | 18 | 158 | 8.0 | 12.9 | 0.00 | 0.00 | 0.00 | 78 | 1000.2 |
| 20260505035903 | 19 | 190 | 6.4 | 9.7 | 0.00 | 0.00 | 0.00 | 77 | 1000.2 |
| 20260505035401 | 19 | 218 | 1.6 | 9.7 | 0.00 | 0.00 | 0.00 | 72 | 1000.2 |
| 20260505034851 | 20 | 173 | 4.8 | 12.9 | 0.00 | 0.00 | 0.00 | 75 | 1000.2 |
| 20260505033910 | 20 | 167 | 8.0 | 11.3 | 0.00 | 0.00 | 0.00 | 71 | 1000.2 |
| 20260505032914 | 20 | 195 | 1.6 | 6.4 | 0.00 | 0.00 | 0.00 | 69 | 1000.2 |
| 20260505032400 | 20 | 195 | 3.2 | 6.4 | 0.00 | 0.00 | 0.00 | 67 | 1000.2 |
| 20260505031401 | 20 | 262 | 0.0 | 4.8 | 0.00 | 0.00 | 0.00 | 71 | 1000.2 |
| 20260505030359 | 21 | 281 | 1.6 | 8.0 | 0.00 | 0.00 | 0.00 | 64 | 1000.2 |
| 20260505025349 | 22 | 280 | 3.2 | 12.9 | 0.00 | 0.00 | 0.00 | 58 | 1000.2 |
| 20260505023902 | 22 | 286 | 4.8 | 12.9 | 0.00 | 0.00 | 0.00 | 57 | 1000.2 |
| 20260505022901 | 23 | 284 | 6.4 | 12.9 | 0.00 | 0.00 | 0.00 | 55 | 1000.2 |
| 20260505021900 | 23 | 271 | 6.4 | 14.5 | 0.00 | 0.00 | 0.00 | 56 | 1000.2 |
| 20260505021352 | 23 | 278 | 6.4 | 12.9 | 0.00 | 0.00 | 0.00 | 55 | 1000.2 |
| 20260505020348 | 23 | 274 | 6.4 | 12.9 | 0.00 | 0.00 | 0.00 | 55 | 1000.2 |
| 20260505015415 | 24 | 272 | 9.7 | 17.7 | 0.00 | 0.00 | 0.00 | 54 | 1000.2 |
| 20260505014859 | 23 | 254 | 4.8 | 14.5 | 0.00 | 0.00 | 0.00 | 59 | 1000.2 |
| 20260505013859 | 22 | 263 | 3.2 | 6.4 | 0.00 | 0.00 | 0.00 | 59 | 1000.2 |
| 20260505012902 | 22 | 265 | 1.6 | 6.4 | 0.00 | 0.00 | 0.00 | 62 | 1000.2 |
| 20260505012353 | 21 | 257 | 3.2 | 6.4 | 0.00 | 0.00 | 0.00 | 69 | 1000.2 |
| 20260505011406 | 21 | 184 | 3.2 | 6.4 | 0.00 | 0.00 | 0.00 | 69 | 1000.2 |
| 20260505010351 | 21 | 262 | 3.2 | 11.3 | 0.00 | 0.00 | 0.00 | 67 | 1000.2 |
| 20260505005404 | 20 | 218 | 1.6 | 6.4 | 0.00 | 0.00 | 0.00 | 73 | 1000.2 |
| 20260505004358 | 21 | 217 | 1.6 | 9.7 | 0.00 | 0.00 | 0.00 | 69 | 1000.2 |
| 20260505003850 | 20 | 224 | 4.8 | 12.9 | 0.00 | 0.00 | 0.00 | 71 | 1000.2 |
| 20260505002859 | 21 | 171 | 8.0 | 14.5 | 0.00 | 0.00 | 0.00 | 70 | 1000.2 |
| 20260505002353 | 21 | 153 | 11.3 | 14.5 | 0.00 | 0.00 | 0.00 | 67 | 1000.2 |
| 20260505001349 | 22 | 173 | 4.8 | 11.3 | 0.00 | 0.00 | 0.00 | 65 | 1000.2 |
| 20260505000407 | 22 | 211 | 6.4 | 11.3 | 0.00 | 0.00 | 0.00 | 62 | 1000.2 |
| 20260504235356 | 22 | 153 | 8.0 | 12.9 | 0.00 | 0.00 | 0.00 | 64 | 1000.2 |
| 20260504234402 | 22 | 150 | 8.0 | 14.5 | 0.00 | 0.00 | 0.00 | 60 | 1000.2 |
| 20260504233858 | 22 | 153 | 6.4 | 12.9 | 0.00 | 0.00 | 0.00 | 62 | 1000.2 |
| 20260504232914 | 22 | 170 | 9.7 | 12.9 | 0.00 | 0.00 | 0.00 | 64 | 1000.2 |
| 20260504231901 | 22 | 139 | 9.7 | 16.1 | 0.00 | 0.00 | 0.00 | 58 | 1000.2 |
| 20260504231350 | 22 | 141 | 12.9 | 17.7 | 0.00 | 0.00 | 0.00 | 62 | 1000.2 |
| 20260504230407 | 22 | 158 | 12.9 | 22.5 | 0.00 | 0.00 | 0.00 | 61 | 1000.2 |
| 20260504225358 | 22 | 161 | 12.9 | 17.7 | 0.00 | 0.00 | 0.00 | 57 | 1000.2 |
| 20260504224857 | 22 | 153 | 11.3 | 19.3 | 0.00 | 0.00 | 0.00 | 63 | 1000.2 |
| 20260504223858 | 22 | 150 | 12.9 | 17.7 | 0.00 | 0.00 | 0.00 | 59 | 1000.2 |
| 20260504223359 | 22 | 143 | 16.1 | 24.1 | 0.00 | 0.00 | 0.00 | 58 | 1000.2 |
| 20260504222856 | 22 | 139 | 14.5 | 20.9 | 0.00 | 0.00 | 0.00 | 60 | 1000.2 |
| 20260504221907 | 22 | 150 | 11.3 | 22.5 | 0.00 | 0.00 | 0.00 | 58 | 1000.2 |
| 20260504221359 | 22 | 137 | 14.5 | 22.5 | 0.00 | 0.00 | 0.00 | 61 | 1000.2 |
| 20260504220900 | 22 | 144 | 17.7 | 22.5 | 0.00 | 0.00 | 0.00 | 61 | 1000.2 |
| 20260504215905 | 22 | 148 | 16.1 | 22.5 | 0.00 | 0.00 | 0.00 | 61 | 1000.2 |
| 20260504215401 | 22 | 146 | 14.5 | 19.3 | 0.00 | 0.00 | 0.00 | 59 | 1000.2 |
| 20260504214851 | 22 | 138 | 16.1 | 22.5 | 0.00 | 0.00 | 0.00 | 60 | 1000.2 |
| 20260504214344 | 21 | 151 | 16.1 | 20.9 | 0.00 | 0.00 | 0.00 | 61 | 1000.2 |
| 20260504213353 | 21 | 158 | 11.3 | 16.1 | 0.00 | 0.00 | 0.00 | 61 | 1000.2 |
| 20260504212359 | 21 | 153 | 14.5 | 19.3 | 0.00 | 0.00 | 0.00 | 60 | 1000.2 |
| 20260504211400 | 21 | 161 | 9.7 | 14.5 | 0.00 | 0.00 | 0.00 | 61 | 1000.2 |
| 20260504210404 | 20 | 164 | 9.7 | 12.9 | 0.00 | 0.00 | 0.00 | 68 | 1000.2 |
| 20260504205850 | 21 | 169 | 9.7 | 12.9 | 0.00 | 0.00 | 0.00 | 67 | 1000.2 |
| 20260504204857 | 20 | 153 | 6.4 | 14.5 | 0.00 | 0.00 | 0.00 | 71 | 1000.2 |
| 20260504203900 | 20 | 174 | 4.8 | 9.7 | 0.00 | 0.00 | 0.00 | 71 | 1000.2 |
| 20260504203358 | 21 | 179 | 4.8 | 9.7 | 0.00 | 0.00 | 0.00 | 58 | 1000.2 |
| 20260504202857 | 20 | 208 | 1.6 | 6.4 | 0.00 | 0.00 | 0.00 | 67 | 1000.2 |
| 20260504201907 | 19 | 207 | 1.6 | 9.7 | 0.00 | 0.00 | 0.00 | 70 | 1000.2 |
| 20260504200855 | 20 | 219 | 4.8 | 8.0 | 0.00 | 0.00 | 0.00 | 68 | 1000.2 |
| 20260504195908 | 20 | 219 | 1.6 | 6.4 | 0.00 | 0.00 | 0.00 | 70 | 1000.2 |
| 20260504195357 | 19 | 219 | 3.2 | 6.4 | 0.00 | 0.00 | 0.00 | 73 | 1000.2 |
| 20260504194400 | 20 | 184 | 6.4 | 12.9 | 0.00 | 0.00 | 0.00 | 69 | 1000.2 |
| 20260504193854 | 20 | 157 | 9.7 | 14.5 | 0.00 | 0.00 | 0.00 | 66 | 1000.2 |
| 20260504192910 | 20 | 165 | 8.0 | 11.3 | 0.00 | 0.00 | 0.00 | 65 | 1000.2 |
| 20260504191855 | 18 | 223 | 4.8 | 8.0 | 0.00 | 0.00 | 0.00 | 75 | 1000.2 |
| 20260504190858 | 17 | 255 | 3.2 | 8.0 | 0.00 | 0.00 | 0.00 | 78 | 1000.2 |
| 20260504190348 | 17 | 239 | 4.8 | 8.0 | 0.00 | 0.00 | 0.00 | 78 | 1000.2 |
| 20260504185357 | 17 | 238 | 3.2 | 8.0 | 0.00 | 0.00 | 0.00 | 78 | 1000.2 |
| 20260504184856 | 18 | 248 | 4.8 | 9.7 | 0.00 | 0.00 | 0.00 | 77 | 1000.2 |
| 20260504183902 | 17 | 232 | 4.8 | 9.7 | 0.00 | 0.00 | 0.00 | 78 | 1000.2 |
| 20260504182855 | 17 | 236 | 8.0 | 11.3 | 0.00 | 0.00 | 0.00 | 78 | 1000.2 |
| 20260504182349 | 17 | 213 | 6.4 | 9.7 | 0.00 | 0.00 | 0.00 | 80 | 1000.2 |
| 20260504181353 | 17 | 221 | 6.4 | 14.5 | 0.00 | 0.00 | 0.00 | 81 | 1000.2 |
| 20260504180353 | 16 | 255 | 6.4 | 12.9 | 0.00 | 0.00 | 0.00 | 82 | 1000.2 |
| 20260504175405 | 16 | 252 | 6.4 | 11.3 | 0.00 | 0.00 | 0.00 | 81 | 1000.2 |
| 20260504174405 | 16 | 234 | 6.4 | 9.7 | 0.00 | 0.00 | 0.00 | 79 | 1000.2 |
| 20260504173840 | 16 | 250 | 4.8 | 8.0 | 0.00 | 0.00 | 0.00 | 82 | 1000.2 |
| 20260504173123 | 15 | 244 | 0.0 | 0.0 | 0.00 | 0.00 | 0.00 | 84 | 1000.2 |
| 20260504160355 | 13 | 222 | 0.0 | 0.0 | 0.00 | 0.00 | 0.00 | 87 | 1000.2 |
| 20260504150900 | 13 | 32 | 0.0 | 0.0 | 0.00 | 0.00 | 0.00 | 85 | 1000.2 |
| 20260504150350 | 13 | 32 | 0.0 | 0.0 | 0.00 | 0.00 | 0.00 | 86 | 1000.2 |
| 20260504130402 | 10 | 32 | 0.0 | 0.0 | 0.00 | 0.00 | 0.00 | 91 | 1000.2 |